Location: Beaver Brook Trail
(44.0290°N, 71.8137°W)
Time: 08:04:26
(UTC+00:00)

ARIANE 6 FM1 Upper Stage - Visible Passes

Search period start: 11 October 2024 00:00
Search period end: 21 October 2024 00:00
Orbit: 563 x 594 km, 62.0° (Epoch: 10 October)

Date Brightness Start Highest point End Pass type
(mag) Time Alt. Az. Time Alt. Az. Time Alt. Az.
11 Oct 5.3 00:40:34 10° N 00:41:27 12° N 00:41:27 12° N visible
12 Oct 5.2 00:44:30 10° NNW 00:45:34 14° N 00:45:34 14° N visible
13 Oct 5.2 00:48:30 10° NNW 00:49:41 16° N 00:49:41 16° N visible
14 Oct 5.1 00:52:32 10° NNW 00:53:48 17° NNW 00:53:48 17° NNW visible
14 Oct 4.9 23:18:39 10° N 23:20:30 12° NNE 23:21:38 11° NE visible
15 Oct 5.1 00:56:35 10° NNW 00:57:55 19° NNW 00:57:55 19° NNW visible
15 Oct 4.6 23:22:19 10° N 23:24:59 16° NNE 23:25:46 15° NE visible
16 Oct 5.1 01:00:40 10° NW 01:02:02 20° NNW 01:02:02 20° NNW visible
16 Oct 4.3 23:26:07 10° NNW 23:29:24 20° NE 23:29:55 20° NE visible
17 Oct 5.2 01:04:48 10° NW 01:06:11 20° NW 01:06:11 20° NW visible
17 Oct 3.9 23:29:57 10° NNW 23:33:42 27° NE 23:34:05 27° NE visible
18 Oct 5.3 01:09:00 10° NW 01:10:22 19° WNW 01:10:22 19° WNW visible
18 Oct 3.3 23:33:49 10° NNW 23:37:54 38° NE 23:38:19 37° ENE visible
19 Oct 5.5 01:13:20 10° WNW 01:14:36 17° WNW 01:14:36 17° WNW visible
19 Oct 2.8 23:37:43 10° NNW 23:42:00 56° NE 23:42:37 51° E visible
20 Oct 5.7 01:17:53 10° WNW 01:18:54 14° W 01:18:54 14° W visible
20 Oct 2.6 23:41:39 10° NW 23:46:00 86° NE 23:47:00 53° SE visible
